Alfonso Bonilla Aragon International Airport
SKCL : now visible

Airfield :











YOU CAN JOIN US ON...

 
LOGIN :

Register | Disclaimer

   EN    FR    IT 

 









Legend :    VFR   Marginal VFR   IFR   Intensive IFR   Very Intensive IFR
Visi :
Ceiling :
>= 8 km
>= 3000ft
5 to 8 km
1000 to 3000 ft
1500m to 5 km
500 to 1000 ft
800 to 1500m
200 to 500 ft
< 800m
< 200 ft
Symbols :   Thunderstorms  Fog  Heavy snow  Heavy precipitations  Wind > 20 kt






- Airport Elevation : 3162 ft
- IATA code : CLO


SKCL - Alfonso Bonilla Aragon International

CURRENT METAR :
  • 281300Z 01003KT 4000 BR BKN007 21/21 A3004 NOSIG

EXPIRED METARs :
  • 281200Z 36003KT 4000 BR BKN007 20/20 A3002 NOSIG
  • 281138Z 35003KT 4000 BR BKN007 20/20 A3001 NOSIG
  • 281100Z 35005KT 5000 BR SCT015 BKN100 19/18 A2999 TEMPO FM1200 4000 BR

TAF TAF SKCL
Valid from the 28 at 12:00 until the 29 at 12:00 UTC


281030Z 2812/2912 VRB04KT 9999 SCT015 BKN090
BECMG 2819/2820 30008KT
PROB40
TEMPO 2820/2823 7000 TSRA SCT017CB BKN090
BECMG 2900/2902 03004KT FEW025 SCT120 TX29/2819Z TN19/2911Z
SKED FIR / South America



MET'MAP, your aeronautical weather chart ! - Copyright ORBIFLY December 2007 - Disclaimer

ORBIFLY MET'MAP TEAM :

Programming & Development : Alexandra Zaïnal
Concept & original design : Baudouin d'Aumeries
Assistance for programming : Marc-Olivier Méhu
Technical & hardware support : Manuel Goepfert

Contact : metmap@orbifly.com




SOURCES & CREDITS :

   NOAA       Earth
Advisory